Location: Munkebjergskolens Observatorium
(55.3864°N, 10.3987°E)
Time: 23:47:02
(UTC+02:00)

FO-29 - Visible Passes

Search period start: 31 March 2023 00:00
Search period end: 10 April 2023 00:00
Orbit: 801 x 1320 km, 98.5° (Epoch: 31 March)

Date Brightness Start Highest point End Pass type
(mag) Time Alt. Az. Time Alt. Az. Time Alt. Az.
31 Mar 12.0 05:06:45 10° NNE 05:13:16 29° E 05:19:18 10° SE visible
01 Apr 12.6 04:13:18 10° NE 04:16:57 14° ENE 04:20:28 10° ESE visible
01 Apr 10.9 05:56:25 10° NNE 06:03:59 53° E 06:10:49 10° S visible
02 Apr 12.0 05:01:52 10° NNE 05:08:09 27° E 05:13:58 10° SE visible
03 Apr 12.6 04:08:41 10° NE 04:11:46 13° ENE 04:14:46 10° E visible
03 Apr 11.0 05:51:29 10° NNE 05:58:54 50° E 06:05:35 10° S visible
04 Apr 12.1 04:56:59 10° NNE 05:03:02 25° E 05:08:37 10° SE visible
05 Apr 12.7 04:04:10 10° NE 04:06:35 12° ENE 04:08:56 10° E visible
05 Apr 11.1 05:46:32 10° NNE 05:53:48 47° E 06:00:20 10° SSE visible
06 Apr 12.2 04:52:06 10° NNE 04:57:53 24° E 05:03:13 10° SE visible
07 Apr 12.8 04:00:00 10° ENE 04:01:24 11° ENE 04:02:46 10° E visible
07 Apr 11.2 05:41:36 10° NNE 05:48:42 44° E 05:55:04 10° SSE visible
08 Apr 12.2 04:47:15 10° NNE 04:52:44 22° E 04:57:48 10° SE visible
09 Apr 11.3 05:36:40 10° NNE 05:43:36 42° E 05:49:47 10° SSE visible
